Tracking 18840 objects as of 17-November-2017
HD Live streaming from Space Station
objects crossing your sky now

FENGYUN 1C DEB

Track FENGYUN 1C DEB now!
10-day predictions


NORAD ID: 30637
Int'l Code: 1999-025ANU
Perigee: 623.5 km
Apogee: 751.6 km
Inclination: 98.9 °
Period: 98.4 minutes
Semi major axis: 7058 km
RCS: 0.039 m2 (small)
Launch date: May 10, 1999
Source: People's Republic of China (PRC)
Launch site: Taiyaun Space Center, China (TSC)

Note: This is SATELLITE DEBRIS
aabbcc
Your satellite tracking list
Your tracking list is empty




NASA's NSSDC Master Catalog

Two Line Element Set (TLE):
1 30637U 99025ANU 17320.71645483  .00002484  00000-0  45767-3 0  9995
2 30637  98.9098 228.7040 0090762  14.1214  37.8006 14.63960413569410
Source of the keplerian elements: AFSPC